Doha, Qatar

5:46 AM AST on February 08, 2016 (GMT +0300)
Doha International

Weather History for OTBD - May, 2013

Change the Weather History Date:

Thursday, May 23, 2013

  Actual Average Record
Temperature  
Mean Temperature 92 °F -  
Max Temperature 101 °F 105 °F - ()
Min Temperature 84 °F 81 °F - ()
Cooling Degree Days 28    
Growing Degree Days 42 (Base 50)    
Moisture  
Dew Point 57 °F    
Average Humidity 32    
Maximum Humidity 74    
Minimum Humidity 10    
Precipitation  
Precipitation 0.00 in 0.00 in - ()
Sea Level Pressure  
Sea Level Pressure 29.76 in    
Wind  
Wind Speed 16 mph ()    
Max Wind Speed 109 mph    
Max Gust Speed 25 mph    
Visibility 5.2 miles    
Events      
T = Trace of Precipitation, MM = Missing Value Source: Averaged Metar Reports

Daily Weather History Graph

Daily Weather History Graph

Search for Another Location

Airport or City:

Trip Planner

Search our weather history database for the weather conditions in past years. The results will help you decide how hot, cold, wet, or windy it might be!

Date:

Astronomy

May. 23, 2013 Rise Set
Actual Time 4:45 AM AST 6:15 PM AST
Civil Twilight 4:20 AM AST 6:40 PM AST
Nautical Twilight 3:50 AM AST 7:10 PM AST
Astronomical Twilight 3:19 AM AST 7:42 PM AST
Moon 4:29 PM AST (5/23) 3:01 AM AST (5/23)
Length of Visible Light 14h 20m
Length of Day
13h 29m
Waxing Gibbous, 95% of the Moon is Illuminated
May 23
Waxing Gibbous
May 25
Full
May 31
Last Quarter
Jun 8
New
Jun 16
First Quarter

Hourly Weather History & Observations

Time (AST) Temp. Heat Index Dew Point Humidity Pressure Visibility Wind Dir Wind Speed Gust Speed Precip Events Conditions
12:00 AM 89.6 °F 94.7 °F 69.8 °F 52% 29.71 in - Variable 1.2 mph - N/A   Clear
12:30 AM 87.8 °F 92.6 °F 69.8 °F 55% 29.71 in 5.0 mi North 3.5 mph - N/A   Unknown
1:00 AM 87.8 °F 90.4 °F 66.2 °F 49% 29.71 in 5.0 mi NNW 10.4 mph - N/A   Unknown
1:30 AM 87.8 °F 93.8 °F 71.6 °F 58% 29.71 in 5.0 mi NNW 12.7 mph - N/A   Unknown
2:00 AM 86.0 °F 91.8 °F 71.6 °F 62% 29.71 in 5.0 mi NNW 15.0 mph - N/A   Unknown
2:30 AM 84.2 °F 92.3 °F 75.2 °F 74% 29.71 in 5.0 mi NNW 15.0 mph - N/A   Unknown
3:00 AM - - 73 °F % 29.73 in 1 mi NNE 109.3 mph - -  
3:00 AM 86.0 °F 93.4 °F 73.4 °F 66% 29.71 in 5.0 mi NNW 16.1 mph - N/A   Unknown
3:30 AM 87.8 °F 90.4 °F 66.2 °F 49% 29.71 in 5.0 mi NNW 16.1 mph - N/A   Unknown
4:00 AM 87.8 °F 88.5 °F 62.6 °F 43% 29.71 in 5.0 mi NNW 19.6 mph - N/A   Unknown
4:30 AM 86.0 °F 87.3 °F 64.4 °F 48% 29.71 in 5.0 mi NNW 19.6 mph - N/A   Unknown
5:00 AM 86.0 °F 88.2 °F 66.2 °F 51% 29.74 in 5.0 mi NNW 18.4 mph - N/A   Unknown
5:30 AM 86.0 °F 87.3 °F 64.4 °F 48% 29.74 in - North 18.4 mph - N/A   Clear
6:00 AM 87.8 °F 89.4 °F 64.4 °F 46% 29.77 in - NNW 18.4 mph - N/A   Clear
6:30 AM 89.6 °F 91.1 °F 64.4 °F 43% 29.80 in - North 19.6 mph - N/A   Clear
7:00 AM 89.6 °F 90.1 °F 62.6 °F 40% 29.80 in - North 19.6 mph - N/A   Clear
8:00 AM 93.2 °F 93.3 °F 60.8 °F 34% 29.80 in - NNW 21.9 mph - N/A   Clear
8:30 AM 95.0 °F 94.4 °F 59.0 °F 30% 29.80 in - NNW 21.9 mph - N/A   Clear
9:00 AM 96 °F - 56 °F 17% 29.82 in 6 mi NNW 20.7 mph - -  
9:00 AM 96.8 °F 95.1 °F 55.4 °F 25% 29.80 in - NNW 20.7 mph - N/A   Clear
9:30 AM 96.8 °F 94.4 °F 53.6 °F 23% 29.80 in - North 23.0 mph - N/A   Clear
10:00 AM 96.8 °F 95.8 °F 57.2 °F 27% 29.80 in - North 17.3 mph - N/A   Clear
10:30 AM 96.8 °F 97.1 °F 60.8 °F 30% 29.80 in - North 19.6 mph - N/A   Clear
11:00 AM 96.8 °F 98.0 °F 62.6 °F 32% 29.80 in - North 17.3 mph - N/A   Clear
12:00 PM 96.8 °F 98.0 °F 62.6 °F 32% 29.80 in - North 17.3 mph - N/A   Clear
12:30 PM 96.8 °F 98.0 °F 62.6 °F 32% 29.77 in - North 16.1 mph - N/A   Clear
1:00 PM 98.6 °F 97.6 °F 57.2 °F 25% 29.77 in 5.6 mi North 21.9 mph - N/A   Unknown
1:30 PM 98.6 °F - 51.8 °F 21% 29.77 in 5.0 mi North 20.7 mph - N/A   Unknown
2:00 PM 100.4 °F - 50.0 °F 18% 29.77 in 5.6 mi North 20.7 mph - N/A   Unknown
2:30 PM 98.6 °F 97.2 °F 55.4 °F 24% 29.77 in - North 17.3 mph - N/A   Clear
3:00 PM 97 °F - 57 °F 18% 29.77 in 6 mi North 16.1 mph - -  
3:00 PM 96.8 °F 95.8 °F 57.2 °F 27% 29.74 in - North 16.1 mph - N/A   Clear
3:30 PM 100.4 °F 99.7 °F 57.2 °F 24% 29.74 in - NNW 20.7 mph - N/A   Clear
4:00 PM 100.4 °F - 35.6 °F 11% 29.74 in - NW 16.1 mph - N/A   Clear
4:30 PM 98.6 °F - 32.0 °F 10% 29.74 in - NNW 17.3 mph - N/A   Clear
5:00 PM 98.6 °F - 33.8 °F 10% 29.74 in - NNW 16.1 mph - N/A   Clear
5:30 PM 96.8 °F - 35.6 °F 12% 29.74 in - NNW 18.4 mph - N/A   Clear
6:00 PM 95.0 °F - 39.2 °F 14% 29.74 in - NW 15.0 mph - N/A   Clear
6:30 PM 93.2 °F - 42.8 °F 17% 29.74 in - NW 12.7 mph - N/A   Clear
7:00 PM 93.2 °F - 46.4 °F 20% 29.74 in - NW 12.7 mph - N/A   Clear
7:30 PM 91.4 °F - 50.0 °F 24% 29.77 in - NW 12.7 mph - N/A   Clear
8:00 PM 89.6 °F - 50.0 °F 26% 29.77 in - NW 13.8 mph - N/A   Clear
8:30 PM 89.6 °F - 51.8 °F 27% 29.74 in - NW 11.5 mph - N/A   Clear
9:00 PM 89 °F - 51 °F 18% 29.78 in 9 mi NW 12.7 mph - -  
9:00 PM 89.6 °F - 51.8 °F 27% 29.77 in - NW 12.7 mph - N/A   Clear
9:30 PM 89.6 °F - 48.2 °F 24% 29.77 in - NW 13.8 mph - N/A   Clear
10:00 PM 89.6 °F - 51.8 °F 27% 29.77 in - NW 13.8 mph 25.3 mph N/A   Clear
10:30 PM 89.6 °F - 51.8 °F 27% 29.77 in - NW 12.7 mph - N/A   Clear
11:00 PM 89.6 °F 87.3 °F 53.6 °F 29% 29.77 in - WNW 10.4 mph - N/A   Clear